User: anonymous   Login
Location: D?uga
(50.2667°N, 19.7833°E)
Time: 13:20:20
(UTC+00:00)
Language:

Cosmos 1814 Rocket - Orbit

View from above orbital plane
View from above orbital plane
View from above satellite
View from above satellite

Ground track
Ground track

The orbit data is extracted from the following two-line orbital elements,

1 17304U 87006B   24195.90130410  .00000554  00000-0  18910-3 0  9991
2 17304  74.0586  20.1657 0030101 291.0669  68.7267 14.38437342964415
Epoch (UTC): 13 July 2024 21:37:52
Eccentricity: 0.0030101
inclination: 74.0586°
perigee height: 742 km
apogee height: 785 km
right ascension of ascending node: 20.1657°
argument of perigee: 291.0669°
revolutions per day: 14.38437342
mean anomaly at epoch: 68.7267°
orbit number at epoch: 96441

The dashed part of the orbit path shows where the satellite is in the earth's shadow,  

DLR